Time,TemperatureF,DewpointF,PressureIn,WindDirection,WindDirectionDegrees,WindSpeedMPH,WindSpeedGustMPH,Humidity,HourlyPrecipIn,Conditions,Clouds,dailyrainin,SoftwareType,DateUTC
2013-04-10 00:10:00,51.3,47.6,30.02,SSW,205,0.0,0.0,87,0.00,,,0.00,VWS V12.07,2013-04-10 04:10:00,
2013-04-10 00:28:00,50.4,46.7,30.03,SSW,205,0.0,0.0,87,0.00,,,0.00,VWS V12.07,2013-04-10 04:28:00,
2013-04-10 00:40:00,49.5,46.4,30.03,SSW,205,0.0,0.0,89,0.00,,,0.00,VWS V12.07,2013-04-10 04:40:00,
2013-04-10 00:58:00,49.2,46.1,30.04,SSW,205,0.0,0.0,89,0.00,,,0.00,VWS V12.07,2013-04-10 04:58:00,
2013-04-10 01:10:00,48.2,45.4,30.04,SSW,205,0.0,0.0,90,0.00,,,0.00,VWS V12.07,2013-04-10 05:10:00,
2013-04-10 01:28:00,48.0,45.2,30.04,SSW,205,0.0,0.0,90,0.00,,,0.00,VWS V12.07,2013-04-10 05:28:00,
2013-04-10 01:40:00,47.1,44.6,30.04,SSW,205,0.0,0.0,91,0.00,,,0.00,VWS V12.07,2013-04-10 05:40:00,
2013-04-10 01:58:00,46.8,44.3,30.04,SSW,205,0.0,0.0,91,0.00,,,0.00,VWS V12.07,2013-04-10 05:58:00,
2013-04-10 02:10:00,46.1,43.9,30.04,SSW,205,0.0,0.0,92,0.00,,,0.00,VWS V12.07,2013-04-10 06:10:00,
2013-04-10 02:28:00,46.0,43.8,30.04,SSW,205,0.0,0.0,92,0.00,,,0.00,VWS V12.07,2013-04-10 06:28:00,
2013-04-10 02:40:00,45.7,43.8,30.03,SSW,205,0.0,0.0,93,0.00,,,0.00,VWS V12.07,2013-04-10 06:40:00,
2013-04-10 02:58:00,45.4,43.5,30.03,SSW,205,0.0,0.0,93,0.00,,,0.00,VWS V12.07,2013-04-10 06:58:00,
2013-04-10 03:10:00,44.5,42.6,30.02,SSW,205,0.0,0.0,93,0.00,,,0.00,VWS V12.07,2013-04-10 07:10:00,
2013-04-10 03:28:00,44.6,42.7,30.02,SSW,205,0.0,0.0,93,0.00,,,0.00,VWS V12.07,2013-04-10 07:28:00,
2013-04-10 03:40:00,44.1,42.5,30.03,SSW,205,0.0,3.0,94,0.00,,,0.00,VWS V12.07,2013-04-10 07:40:00,
2013-04-10 03:58:00,44.1,42.5,30.02,SSW,205,0.0,0.0,94,0.00,,,0.00,VWS V12.07,2013-04-10 07:58:00,
2013-04-10 04:10:00,43.8,42.2,30.02,SSW,205,0.0,1.0,94,0.00,,,0.00,VWS V12.07,2013-04-10 08:10:00,
2013-04-10 04:28:00,43.6,42.3,30.01,SSW,205,0.0,2.0,95,0.00,,,0.00,VWS V12.07,2013-04-10 08:28:00,
2013-04-10 04:40:00,43.3,42.0,30.01,SSW,205,0.0,1.0,95,0.00,,,0.00,VWS V12.07,2013-04-10 08:40:00,
2013-04-10 04:58:00,43.1,41.8,30.02,SSW,205,0.0,2.0,95,0.00,,,0.00,VWS V12.07,2013-04-10 08:58:00,
2013-04-10 05:10:00,42.9,41.6,30.02,SSW,205,0.0,0.0,95,0.00,,,0.00,VWS V12.07,2013-04-10 09:10:00,
2013-04-10 05:28:00,42.8,41.5,30.02,SSW,205,0.0,0.0,95,0.00,,,0.00,VWS V12.07,2013-04-10 09:28:00,
2013-04-10 05:40:00,42.8,41.7,30.02,SSW,205,0.0,2.0,96,0.00,,,0.00,VWS V12.07,2013-04-10 09:40:00,
2013-04-10 05:58:00,42.9,41.8,30.02,SSW,205,0.0,0.0,96,0.00,,,0.00,VWS V12.07,2013-04-10 09:58:00,
2013-04-10 06:10:00,42.3,41.2,30.02,SSW,205,0.0,0.0,96,0.00,,,0.00,VWS V12.07,2013-04-10 10:10:00,
2013-04-10 06:28:00,42.3,41.2,30.02,SSW,205,0.0,0.0,96,0.00,,,0.00,VWS V12.07,2013-04-10 10:28:00,
2013-04-10 06:40:00,42.5,41.4,30.02,SSW,205,0.0,0.0,96,0.00,,,0.00,VWS V12.07,2013-04-10 10:40:00,
2013-04-10 06:58:00,42.3,41.2,30.02,SSW,205,0.0,1.0,96,0.00,,,0.00,VWS V12.07,2013-04-10 10:58:00,
2013-04-10 07:10:00,43.3,42.5,30.03,SSW,205,0.0,0.0,97,0.00,,,0.00,VWS V12.07,2013-04-10 11:10:00,
2013-04-10 07:28:00,43.6,42.8,30.05,SSW,205,0.0,0.0,97,0.00,,,0.00,VWS V12.07,2013-04-10 11:28:00,
2013-04-10 07:40:00,43.9,43.1,30.06,SSW,205,0.0,1.0,97,0.00,,,0.00,VWS V12.07,2013-04-10 11:40:00,
2013-04-10 07:58:00,44.5,43.7,30.06,SSW,205,0.0,0.0,97,0.00,,,0.00,VWS V12.07,2013-04-10 11:58:00,
2013-04-10 08:10:00,46.0,45.5,30.05,SSW,205,0.0,0.0,98,0.00,,,0.00,VWS V12.07,2013-04-10 12:10:00,
2013-04-10 08:28:00,46.4,45.9,30.06,SSW,205,0.0,0.0,98,0.00,,,0.00,VWS V12.07,2013-04-10 12:28:00,
2013-04-10 08:40:00,49.4,48.9,30.06,SSW,205,0.0,0.0,98,0.00,,,0.00,VWS V12.07,2013-04-10 12:40:00,
2013-04-10 08:58:00,51.0,50.2,30.04,SSW,205,0.0,0.0,97,0.00,,,0.00,VWS V12.07,2013-04-10 12:58:00,
2013-04-10 09:10:00,55.9,52.4,30.04,SSE,151,0.0,0.0,88,0.00,,,0.00,VWS V12.07,2013-04-10 13:10:00,
2013-04-10 09:28:00,59.0,52.5,30.04,SSE,151,0.0,0.0,79,0.00,,,0.00,VWS V12.07,2013-04-10 13:28:00,
2013-04-10 09:40:00,64.2,51.4,30.03,SSE,151,0.0,2.0,63,0.00,,,0.00,VWS V12.07,2013-04-10 13:40:00,
2013-04-10 09:58:00,66.0,50.3,30.02,SSE,150,1.0,2.0,57,0.00,,,0.00,VWS V12.07,2013-04-10 13:58:00,
2013-04-10 10:10:00,68.6,48.7,30.01,NE,56,1.0,3.0,49,0.00,,,0.00,VWS V12.07,2013-04-10 14:10:00,
2013-04-10 10:28:00,69.6,47.3,30.02,NE,42,7.0,7.0,45,0.00,,,0.00,VWS V12.07,2013-04-10 14:28:00,
2013-04-10 10:40:00,70.8,46.6,30.01,NNE,30,2.0,5.0,42,0.00,,,0.00,VWS V12.07,2013-04-10 14:40:00,
2013-04-10 10:58:00,71.6,46.0,30.01,NNE,30,0.0,3.0,40,0.00,,,0.00,VWS V12.07,2013-04-10 14:58:00,
2013-04-10 11:10:00,73.7,45.1,30.00,ESE,119,0.0,5.0,36,0.00,,,0.00,VWS V12.07,2013-04-10 15:10:00,
2013-04-10 11:28:00,73.2,43.2,30.01,East,85,1.0,7.0,34,0.00,,,0.00,VWS V12.07,2013-04-10 15:28:00,
2013-04-10 11:40:00,74.0,43.1,30.01,ENE,59,3.0,4.0,33,0.00,,,0.00,VWS V12.07,2013-04-10 15:40:00,
2013-04-10 11:58:00,75.6,43.7,30.01,SE,132,1.0,5.0,32,0.00,,,0.00,VWS V12.07,2013-04-10 15:58:00,
2013-04-10 12:10:00,75.8,45.5,30.02,SSE,152,0.0,6.0,34,0.00,,,0.00,VWS V12.07,2013-04-10 16:10:00,
2013-04-10 12:28:00,76.3,48.1,30.01,SSE,157,1.0,7.0,37,0.00,,,0.00,VWS V12.07,2013-04-10 16:28:00,
2013-04-10 12:40:00,76.0,46.4,30.02,East,82,2.0,6.0,35,0.00,,,0.00,VWS V12.07,2013-04-10 16:40:00,
2013-04-10 12:50:00,75.3,47.3,30.00,East,87,9.0,11.0,37,0.00,,,0.00,VWS V12.07,2013-04-10 16:50:00,
2013-04-10 13:00:00,75.1,49.2,30.00,ENE,73,6.0,12.0,40,0.00,,,0.00,VWS V12.07,2013-04-10 17:00:00,
2013-04-10 13:10:00,74.9,50.3,30.00,East,99,7.0,13.0,42,0.00,,,0.00,VWS V12.07,2013-04-10 17:10:00,
2013-04-10 13:28:00,74.6,50.7,30.01,East,92,11.0,16.0,43,0.00,,,0.00,VWS V12.07,2013-04-10 17:28:00,
2013-04-10 13:40:00,74.4,50.5,30.01,NE,42,3.0,13.0,43,0.00,,,0.00,VWS V12.07,2013-04-10 17:40:00,
2013-04-10 13:58:00,74.7,48.8,30.00,NNE,19,1.0,12.0,40,0.00,,,0.00,VWS V12.07,2013-04-10 17:58:00,
2013-04-10 14:10:00,75.6,49.6,30.00,East,101,3.0,13.0,40,0.00,,,0.00,VWS V12.07,2013-04-10 18:10:00,
2013-04-10 14:28:00,75.1,49.8,29.99,ENE,65,0.0,14.0,41,0.00,,,0.00,VWS V12.07,2013-04-10 18:28:00,
2013-04-10 14:40:00,75.3,49.3,29.99,NNE,27,7.0,14.0,40,0.00,,,0.00,VWS V12.07,2013-04-10 18:40:00,
2013-04-10 14:58:00,76.0,48.6,29.99,East,93,11.0,12.0,38,0.00,,,0.00,VWS V12.07,2013-04-10 18:58:00,
2013-04-10 15:10:00,76.1,48.7,29.98,NE,38,0.0,12.0,38,0.00,,,0.00,VWS V12.07,2013-04-10 19:10:00,
2013-04-10 15:28:00,77.0,48.8,29.98,SSW,207,1.0,11.0,37,0.00,,,0.00,VWS V12.07,2013-04-10 19:28:00,
2013-04-10 15:40:00,77.4,47.6,29.97,SE,134,3.0,11.0,35,0.00,,,0.00,VWS V12.07,2013-04-10 19:40:00,
2013-04-10 15:58:00,77.7,47.9,29.96,SSW,213,5.0,12.0,35,0.00,,,0.00,VWS V12.07,2013-04-10 19:58:00,
2013-04-10 16:10:00,77.7,47.9,29.95,SSE,167,8.0,15.0,35,0.00,,,0.00,VWS V12.07,2013-04-10 20:10:00,
2013-04-10 16:28:00,77.4,49.8,29.95,WSW,239,5.0,10.0,38,0.00,,,0.00,VWS V12.07,2013-04-10 20:28:00,
2013-04-10 16:40:00,77.2,52.4,29.95,WSW,256,1.0,15.0,42,0.00,,,0.00,VWS V12.07,2013-04-10 20:40:00,
2013-04-10 16:58:00,76.8,51.3,29.94,SSW,213,0.0,10.0,41,0.00,,,0.00,VWS V12.07,2013-04-10 20:58:00,
2013-04-10 17:10:00,76.0,51.9,29.94,SE,143,1.0,10.0,43,0.00,,,0.00,VWS V12.07,2013-04-10 21:10:00,
2013-04-10 17:28:00,76.7,52.5,29.93,West,275,3.0,13.0,43,0.00,,,0.00,VWS V12.07,2013-04-10 21:28:00,
2013-04-10 17:40:00,76.5,52.4,29.93,West,267,5.0,10.0,43,0.00,,,0.00,VWS V12.07,2013-04-10 21:40:00,
2013-04-10 17:58:00,76.3,52.2,29.93,WSW,238,0.0,9.0,43,0.00,,,0.00,VWS V12.07,2013-04-10 21:58:00,
2013-04-10 18:10:00,74.7,52.6,29.93,SE,126,0.0,13.0,46,0.00,,,0.00,VWS V12.07,2013-04-10 22:10:00,
2013-04-10 18:28:00,74.4,52.3,29.93,SW,223,1.0,12.0,46,0.00,,,0.00,VWS V12.07,2013-04-10 22:28:00,
2013-04-10 18:40:00,73.7,51.7,29.93,East,96,0.0,11.0,46,0.00,,,0.00,VWS V12.07,2013-04-10 22:40:00,
2013-04-10 18:58:00,73.5,52.1,29.92,West,271,7.0,12.0,47,0.00,,,0.00,VWS V12.07,2013-04-10 22:58:00,
2013-04-10 19:10:00,72.1,51.9,29.92,East,86,5.0,9.0,49,0.00,,,0.00,VWS V12.07,2013-04-10 23:10:00,
2013-04-10 19:28:00,71.5,51.4,29.92,East,88,1.0,9.0,49,0.00,,,0.00,VWS V12.07,2013-04-10 23:28:00,
2013-04-10 19:40:00,69.9,51.5,29.92,South,178,0.0,11.0,52,0.00,,,0.00,VWS V12.07,2013-04-10 23:40:00,
2013-04-10 19:58:00,69.3,51.5,29.93,South,189,0.0,11.0,53,0.00,,,0.00,VWS V12.07,2013-04-10 23:58:00,
2013-04-10 20:10:00,68.1,51.3,29.93,SSE,166,2.0,7.0,55,0.00,,,0.00,VWS V12.07,2013-04-11 00:10:00,
2013-04-10 20:28:00,67.6,51.4,29.90,South,175,2.0,9.0,56,0.00,,,0.00,VWS V12.07,2013-04-11 00:28:00,
2013-04-10 20:40:00,66.8,51.6,29.91,West,279,3.0,3.0,58,0.00,,,0.00,VWS V12.07,2013-04-11 00:40:00,
2013-04-10 20:58:00,66.3,51.1,29.91,South,180,0.0,5.0,58,0.00,,,0.00,VWS V12.07,2013-04-11 00:58:00,
2013-04-10 21:10:00,65.3,50.6,29.91,South,172,0.0,4.0,59,0.00,,,0.00,VWS V12.07,2013-04-11 01:10:00,
2013-04-10 21:28:00,65.0,50.8,29.87,South,172,0.0,1.0,60,0.00,,,0.00,VWS V12.07,2013-04-11 01:28:00,
2013-04-10 21:40:00,63.5,50.7,29.87,South,175,0.0,3.0,63,0.00,,,0.00,VWS V12.07,2013-04-11 01:40:00,
2013-04-10 21:58:00,62.9,50.5,29.87,SSW,194,0.0,3.0,64,0.00,,,0.00,VWS V12.07,2013-04-11 01:58:00,
2013-04-10 22:10:00,60.7,50.1,29.88,SSW,194,0.0,0.0,68,0.00,,,0.00,VWS V12.07,2013-04-11 02:10:00,
2013-04-10 22:28:00,59.5,49.7,29.87,SSW,194,0.0,0.0,70,0.00,,,0.00,VWS V12.07,2013-04-11 02:28:00,
2013-04-10 22:40:00,57.0,49.2,29.87,SSW,194,0.0,0.0,75,0.00,,,0.00,VWS V12.07,2013-04-11 02:40:00,
2013-04-10 22:58:00,56.2,49.1,29.87,SSW,194,0.0,1.0,77,0.00,,,0.00,VWS V12.07,2013-04-11 02:58:00,
2013-04-10 23:10:00,55.3,49.2,29.87,SSW,194,0.0,0.0,80,0.00,,,0.00,VWS V12.07,2013-04-11 03:10:00,
2013-04-10 23:28:00,55.4,49.7,29.86,SSW,194,0.0,1.0,81,0.00,,,0.00,VWS V12.07,2013-04-11 03:28:00,
2013-04-10 23:40:00,55.9,49.5,29.85,SSW,194,0.0,0.0,79,0.00,,,0.00,VWS V12.07,2013-04-11 03:40:00,
2013-04-10 23:58:00,55.9,50.2,29.85,SSW,194,0.0,0.0,81,0.00,,,0.00,VWS V12.07,2013-04-11 03:58:00,